Time,TemperatureF,DewpointF,PressureIn,WindDirection,WindDirectionDegrees,WindSpeedMPH,WindSpeedGustMPH,Humidity,HourlyPrecipIn,Conditions,Clouds,dailyrainin,SoftwareType,DateUTC
2013-06-29 00:00:00,63.1,60.8,30.03,South,180,1.0,2.0,93,0.00,,,0.00,WeatherTracker,2013-06-29 07:00:00,
2013-06-29 00:05:00,63.1,60.8,30.03,NNE,22,1.0,1.0,93,0.00,,,0.00,WeatherTracker,2013-06-29 07:05:00,
2013-06-29 00:15:00,62.8,60.8,30.03,South,180,0.0,0.0,93,0.00,,,0.00,WeatherTracker,2013-06-29 07:15:00,
2013-06-29 00:25:00,62.8,60.8,30.03,ESE,112,0.0,0.0,93,0.00,,,0.00,WeatherTracker,2013-06-29 07:25:00,
2013-06-29 00:30:00,62.6,60.8,30.03,ESE,112,0.0,0.0,93,0.00,,,0.00,WeatherTracker,2013-06-29 07:30:00,
2013-06-29 00:35:00,62.6,60.8,30.03,ESE,112,0.0,0.0,93,0.00,,,0.00,WeatherTracker,2013-06-29 07:35:00,
2013-06-29 00:45:00,62.4,60.8,30.03,South,180,0.0,0.0,93,0.00,,,0.00,WeatherTracker,2013-06-29 07:45:00,
2013-06-29 00:50:00,62.6,60.8,30.03,ESE,112,0.0,0.0,93,0.00,,,0.00,WeatherTracker,2013-06-29 07:50:00,
2013-06-29 01:00:00,62.6,60.8,30.03,SE,135,1.0,1.0,93,0.00,,,0.00,WeatherTracker,2013-06-29 08:00:00,
2013-06-29 01:10:00,62.2,60.8,30.03,SE,135,0.0,0.0,93,0.00,,,0.00,WeatherTracker,2013-06-29 08:10:00,
2013-06-29 01:15:00,62.2,60.8,30.03,SE,135,0.0,0.0,93,0.00,,,0.00,WeatherTracker,2013-06-29 08:15:00,
2013-06-29 01:25:00,61.9,60.8,30.03,SE,135,0.0,1.0,93,0.00,,,0.00,WeatherTracker,2013-06-29 08:25:00,
2013-06-29 01:35:00,61.9,60.8,30.03,SE,135,0.0,0.0,94,0.00,,,0.00,WeatherTracker,2013-06-29 08:35:00,
2013-06-29 01:45:00,62.1,60.8,30.03,ESE,112,2.0,2.0,94,0.00,,,0.00,WeatherTracker,2013-06-29 08:45:00,
2013-06-29 01:50:00,62.1,60.8,30.03,ENE,67,0.0,0.0,94,0.00,,,0.00,WeatherTracker,2013-06-29 08:50:00,
2013-06-29 02:00:00,61.9,60.8,30.03,ENE,67,0.0,0.0,94,0.00,,,0.00,WeatherTracker,2013-06-29 09:00:00,
2013-06-29 02:10:00,61.9,60.8,30.03,ENE,67,0.0,0.0,94,0.00,,,0.00,WeatherTracker,2013-06-29 09:10:00,
2013-06-29 02:20:00,61.7,60.8,30.00,ENE,67,0.0,1.0,94,0.00,,,0.00,WeatherTracker,2013-06-29 09:20:00,
2013-06-29 02:25:00,61.7,60.8,30.00,ENE,67,0.0,0.0,94,0.00,,,0.00,WeatherTracker,2013-06-29 09:25:00,
2013-06-29 02:35:00,61.5,59.0,30.03,ENE,67,0.0,0.0,94,0.00,,,0.00,WeatherTracker,2013-06-29 09:35:00,
2013-06-29 02:40:00,61.5,59.0,30.03,SSE,157,1.0,0.0,94,0.00,,,0.00,WeatherTracker,2013-06-29 09:40:00,
2013-06-29 02:45:00,61.3,59.0,30.03,SE,135,1.0,1.0,94,0.00,,,0.00,WeatherTracker,2013-06-29 09:45:00,
2013-06-29 02:55:00,61.2,59.0,30.00,SE,135,0.0,0.0,94,0.00,,,0.00,WeatherTracker,2013-06-29 09:55:00,
2013-06-29 03:05:00,61.0,59.0,30.03,East,90,0.0,0.0,94,0.00,,,0.00,WeatherTracker,2013-06-29 10:05:00,
2013-06-29 03:10:00,61.2,60.8,30.03,ESE,112,0.0,0.0,95,0.00,,,0.00,WeatherTracker,2013-06-29 10:10:00,
2013-06-29 03:20:00,61.0,59.0,30.03,ESE,112,0.0,0.0,94,0.00,,,0.00,WeatherTracker,2013-06-29 10:20:00,
2013-06-29 03:30:00,61.0,59.0,30.03,ESE,112,0.0,0.0,95,0.00,,,0.00,WeatherTracker,2013-06-29 10:30:00,
2013-06-29 03:35:00,61.0,59.0,30.03,SE,135,0.0,0.0,95,0.00,,,0.00,WeatherTracker,2013-06-29 10:35:00,
2013-06-29 03:45:00,61.0,59.0,30.03,SSE,157,1.0,1.0,95,0.00,,,0.00,WeatherTracker,2013-06-29 10:45:00,
2013-06-29 03:55:00,61.3,60.8,30.00,ESE,112,0.0,0.0,95,0.00,,,0.00,WeatherTracker,2013-06-29 10:55:00,
2013-06-29 04:05:00,61.3,60.8,30.00,SE,135,0.0,0.0,95,0.00,,,0.00,WeatherTracker,2013-06-29 11:05:00,
2013-06-29 04:10:00,61.3,60.8,30.00,SSE,157,0.0,2.0,95,0.00,,,0.00,WeatherTracker,2013-06-29 11:10:00,
2013-06-29 04:20:00,61.3,60.8,30.00,ESE,112,0.0,0.0,95,0.00,,,0.00,WeatherTracker,2013-06-29 11:20:00,
2013-06-29 04:30:00,61.3,60.8,30.00,ESE,112,1.0,1.0,95,0.00,,,0.00,WeatherTracker,2013-06-29 11:30:00,
2013-06-29 04:40:00,61.5,60.8,30.00,SE,135,0.0,1.0,95,0.00,,,0.00,WeatherTracker,2013-06-29 11:40:00,
2013-06-29 04:45:00,61.5,60.8,30.00,ESE,112,0.0,0.0,95,0.00,,,0.00,WeatherTracker,2013-06-29 11:45:00,
2013-06-29 04:55:00,61.7,60.8,30.00,SE,135,0.0,1.0,96,0.00,,,0.00,WeatherTracker,2013-06-29 11:55:00,
2013-06-29 05:05:00,61.7,60.8,30.00,East,90,0.0,0.0,95,0.00,,,0.00,WeatherTracker,2013-06-29 12:05:00,
2013-06-29 05:10:00,61.7,60.8,30.00,East,90,0.0,0.0,95,0.00,,,0.00,WeatherTracker,2013-06-29 12:10:00,
2013-06-29 05:15:00,61.7,60.8,30.00,East,90,0.0,0.0,95,0.00,,,0.00,WeatherTracker,2013-06-29 12:15:00,
2013-06-29 05:25:00,61.5,60.8,30.00,East,90,0.0,0.0,95,0.00,,,0.00,WeatherTracker,2013-06-29 12:25:00,
2013-06-29 05:30:00,61.5,60.8,30.00,East,90,0.0,0.0,95,0.00,,,0.00,WeatherTracker,2013-06-29 12:30:00,
2013-06-29 05:40:00,61.5,60.8,30.00,East,90,0.0,0.0,95,0.00,,,0.00,WeatherTracker,2013-06-29 12:40:00,
2013-06-29 05:50:00,61.7,60.8,30.00,East,90,0.0,0.0,95,0.00,,,0.00,WeatherTracker,2013-06-29 12:50:00,
2013-06-29 05:55:00,61.5,60.8,30.00,SE,135,0.0,1.0,95,0.00,,,0.00,WeatherTracker,2013-06-29 12:55:00,
2013-06-29 06:05:00,61.3,60.8,30.00,SE,135,0.0,0.0,95,0.00,,,0.00,WeatherTracker,2013-06-29 13:05:00,
2013-06-29 06:15:00,61.3,60.8,30.00,SE,135,0.0,0.0,95,0.00,,,0.00,WeatherTracker,2013-06-29 13:15:00,
2013-06-29 06:25:00,61.5,60.8,30.00,SE,135,0.0,0.0,95,0.00,,,0.00,WeatherTracker,2013-06-29 13:25:00,
2013-06-29 06:30:00,61.5,60.8,30.00,SE,135,2.0,2.0,95,0.00,,,0.00,WeatherTracker,2013-06-29 13:30:00,
2013-06-29 06:40:00,61.5,60.8,30.00,SE,135,0.0,0.0,95,0.00,,,0.00,WeatherTracker,2013-06-29 13:40:00,
2013-06-29 06:50:00,61.7,60.8,30.00,East,90,0.0,0.0,95,0.00,,,0.00,WeatherTracker,2013-06-29 13:50:00,
2013-06-29 07:00:00,64.0,62.6,30.00,SE,135,0.0,0.0,96,0.00,,,0.00,WeatherTracker,2013-06-29 14:00:00,
2013-06-29 07:05:00,65.5,64.4,30.00,South,180,0.0,0.0,96,0.00,,,0.00,WeatherTracker,2013-06-29 14:05:00,
2013-06-29 07:15:00,67.5,64.4,30.00,SSW,202,2.0,2.0,90,0.00,,,0.00,WeatherTracker,2013-06-29 14:15:00,
2013-06-29 07:25:00,68.2,62.6,30.00,SE,135,2.0,2.0,81,0.00,,,0.00,WeatherTracker,2013-06-29 14:25:00,
2013-06-29 07:35:00,69.1,60.8,30.00,South,180,2.0,2.0,76,0.00,,,0.00,WeatherTracker,2013-06-29 14:35:00,
2013-06-29 07:40:00,69.3,60.8,30.00,SE,135,4.0,4.0,72,0.00,,,0.00,WeatherTracker,2013-06-29 14:40:00,
2013-06-29 07:50:00,69.6,60.8,30.00,SW,225,2.0,3.0,71,0.00,,,0.00,WeatherTracker,2013-06-29 14:50:00,
2013-06-29 08:00:00,70.0,59.0,30.00,SSE,157,3.0,4.0,69,0.00,,,0.00,WeatherTracker,2013-06-29 15:00:00,
2013-06-29 08:10:00,70.9,60.8,30.00,SSE,157,2.0,2.0,69,0.00,,,0.00,WeatherTracker,2013-06-29 15:10:00,
2013-06-29 08:15:00,70.7,59.0,30.00,SSW,202,3.0,5.0,67,0.00,,,0.00,WeatherTracker,2013-06-29 15:15:00,
2013-06-29 08:25:00,71.8,60.8,30.00,East,90,1.0,3.0,68,0.00,,,0.00,WeatherTracker,2013-06-29 15:25:00,
2013-06-29 08:35:00,72.3,60.8,30.00,SSE,157,2.0,2.0,66,0.00,,,0.00,WeatherTracker,2013-06-29 15:35:00,
2013-06-29 08:45:00,72.9,60.8,30.00,ESE,112,1.0,1.0,65,0.00,,,0.00,WeatherTracker,2013-06-29 15:45:00,
2013-06-29 08:50:00,72.3,59.0,30.00,SE,135,3.0,4.0,62,0.00,,,0.00,WeatherTracker,2013-06-29 15:50:00,
2013-06-29 09:00:00,73.0,59.0,30.00,SSE,157,3.0,3.0,63,0.00,,,0.00,WeatherTracker,2013-06-29 16:00:00,
2013-06-29 09:10:00,74.5,60.8,30.00,South,180,2.0,2.0,61,0.00,,,0.00,WeatherTracker,2013-06-29 16:10:00,
2013-06-29 09:20:00,77.0,62.6,30.00,NW,315,2.0,3.0,59,0.00,,,0.00,WeatherTracker,2013-06-29 16:20:00,
2013-06-29 09:25:00,77.2,60.8,30.00,NW,315,3.0,3.0,56,0.00,,,0.00,WeatherTracker,2013-06-29 16:25:00,
2013-06-29 09:35:00,76.5,59.0,30.00,WNW,292,2.0,2.0,56,0.00,,,0.00,WeatherTracker,2013-06-29 16:35:00,
2013-06-29 09:45:00,77.9,60.8,30.00,NW,315,3.0,3.0,55,0.00,,,0.00,WeatherTracker,2013-06-29 16:45:00,
2013-06-29 09:50:00,78.1,60.8,30.00,NW,315,2.0,2.0,55,0.00,,,0.00,WeatherTracker,2013-06-29 16:50:00,
2013-06-29 09:55:00,79.3,62.6,30.00,NNE,22,1.0,1.0,54,0.00,,,0.00,WeatherTracker,2013-06-29 16:55:00,
2013-06-29 10:05:00,79.3,60.8,30.00,West,270,2.0,2.0,53,0.00,,,0.00,WeatherTracker,2013-06-29 17:05:00,
2013-06-29 10:10:00,80.6,62.6,30.00,WNW,292,1.0,2.0,53,0.00,,,0.00,WeatherTracker,2013-06-29 17:10:00,
2013-06-29 10:20:00,81.3,60.8,30.00,West,270,1.0,1.0,50,0.00,,,0.00,WeatherTracker,2013-06-29 17:20:00,
2013-06-29 10:30:00,81.3,59.0,30.00,SSW,202,1.0,0.0,47,0.00,,,0.00,WeatherTracker,2013-06-29 17:30:00,
2013-06-29 10:35:00,81.1,59.0,30.00,NNW,337,2.0,2.0,46,0.00,,,0.00,WeatherTracker,2013-06-29 17:35:00,
2013-06-29 10:45:00,79.5,59.0,30.00,WNW,292,4.0,4.0,48,0.00,,,0.00,WeatherTracker,2013-06-29 17:45:00,
2013-06-29 10:55:00,79.2,59.0,30.00,North,0,3.0,3.0,50,0.00,,,0.00,WeatherTracker,2013-06-29 17:55:00,
2013-06-29 11:05:00,79.2,60.8,30.00,WNW,292,3.0,3.0,51,0.00,,,0.00,WeatherTracker,2013-06-29 18:05:00,
2013-06-29 11:10:00,79.0,59.0,30.00,West,270,3.0,3.0,51,0.00,,,0.00,WeatherTracker,2013-06-29 18:10:00,
2013-06-29 11:20:00,79.9,60.8,30.00,NNW,337,3.0,4.0,50,0.00,,,0.00,WeatherTracker,2013-06-29 18:20:00,
2013-06-29 11:30:00,79.9,59.0,30.00,WNW,292,2.0,2.0,49,0.00,,,0.00,WeatherTracker,2013-06-29 18:30:00,
2013-06-29 11:35:00,79.9,59.0,30.00,WNW,292,4.0,4.0,48,0.00,,,0.00,WeatherTracker,2013-06-29 18:35:00,
2013-06-29 11:40:00,78.6,59.0,30.00,NNW,337,3.0,3.0,50,0.00,,,0.00,WeatherTracker,2013-06-29 18:40:00,
2013-06-29 11:45:00,79.2,60.8,30.00,NW,315,2.0,2.0,51,0.00,,,0.00,WeatherTracker,2013-06-29 18:45:00,
2013-06-29 11:55:00,81.0,60.8,30.03,NW,315,4.0,4.0,49,0.00,,,0.00,WeatherTracker,2013-06-29 18:55:00,
2013-06-29 12:05:00,81.0,60.8,30.00,NW,315,4.0,4.0,48,0.00,,,0.00,WeatherTracker,2013-06-29 19:05:00,
2013-06-29 12:15:00,81.7,60.8,30.00,NW,315,3.0,4.0,48,0.00,,,0.00,WeatherTracker,2013-06-29 19:15:00,
2013-06-29 12:20:00,82.0,60.8,30.00,NNW,337,2.0,3.0,48,0.00,,,0.00,WeatherTracker,2013-06-29 19:20:00,
2013-06-29 12:30:00,82.2,62.6,30.00,NNW,337,3.0,3.0,49,0.00,,,0.00,WeatherTracker,2013-06-29 19:30:00,
2013-06-29 12:40:00,82.6,60.8,30.00,NNW,337,3.0,4.0,47,0.00,,,0.00,WeatherTracker,2013-06-29 19:40:00,
2013-06-29 12:50:00,80.4,59.0,30.03,West,270,4.0,4.0,48,0.00,,,0.00,WeatherTracker,2013-06-29 19:50:00,
2013-06-29 12:55:00,81.1,60.8,30.03,ENE,67,3.0,5.0,49,0.00,,,0.00,WeatherTracker,2013-06-29 19:55:00,
2013-06-29 13:05:00,82.4,62.6,30.03,NNW,337,2.0,2.0,50,0.00,,,0.00,WeatherTracker,2013-06-29 20:05:00,
2013-06-29 13:15:00,82.6,60.8,30.03,NNW,337,3.0,3.0,48,0.00,,,0.00,WeatherTracker,2013-06-29 20:15:00,
2013-06-29 13:25:00,84.9,62.6,30.00,NNW,337,4.0,4.0,46,0.00,,,0.00,WeatherTracker,2013-06-29 20:25:00,
2013-06-29 13:30:00,83.8,60.8,30.00,WNW,292,4.0,4.0,45,0.00,,,0.00,WeatherTracker,2013-06-29 20:30:00,
2013-06-29 13:40:00,83.3,60.8,30.00,NW,315,4.0,4.0,46,0.00,,,0.00,WeatherTracker,2013-06-29 20:40:00,
2013-06-29 13:45:00,82.6,60.8,30.00,NNW,337,4.0,4.0,47,0.00,,,0.00,WeatherTracker,2013-06-29 20:45:00,
2013-06-29 13:50:00,81.5,60.8,30.00,West,270,4.0,4.0,48,0.00,,,0.00,WeatherTracker,2013-06-29 20:50:00,
2013-06-29 14:00:00,81.9,60.8,30.00,WNW,292,3.0,4.0,49,0.00,,,0.00,WeatherTracker,2013-06-29 21:00:00,
2013-06-29 14:05:00,80.8,60.8,30.03,WNW,292,2.0,5.0,50,0.00,,,0.00,WeatherTracker,2013-06-29 21:05:00,
2013-06-29 14:15:00,80.8,60.8,30.03,NNW,337,4.0,4.0,51,0.00,,,0.00,WeatherTracker,2013-06-29 21:15:00,
2013-06-29 14:25:00,81.7,62.6,30.00,NNE,22,4.0,4.0,51,0.00,,,0.00,WeatherTracker,2013-06-29 21:25:00,
2013-06-29 14:30:00,81.7,62.6,30.00,NNW,337,4.0,4.0,51,0.00,,,0.00,WeatherTracker,2013-06-29 21:30:00,
2013-06-29 14:35:00,84.2,64.4,30.00,NW,315,3.0,3.0,49,0.00,,,0.00,WeatherTracker,2013-06-29 21:35:00,
2013-06-29 14:45:00,85.3,62.6,30.00,NNW,337,2.0,4.0,47,0.00,,,0.00,WeatherTracker,2013-06-29 21:45:00,
2013-06-29 14:50:00,84.4,62.6,30.00,NNW,337,4.0,4.0,47,0.00,,,0.00,WeatherTracker,2013-06-29 21:50:00,
2013-06-29 15:00:00,83.5,62.6,30.00,WNW,292,4.0,4.0,47,0.00,,,0.00,WeatherTracker,2013-06-29 22:00:00,
2013-06-29 15:10:00,82.6,62.6,30.00,NW,315,4.0,4.0,49,0.00,,,0.00,WeatherTracker,2013-06-29 22:10:00,
2013-06-29 15:15:00,82.0,62.6,30.00,NNW,337,4.0,5.0,50,0.00,,,0.00,WeatherTracker,2013-06-29 22:15:00,
2013-06-29 15:25:00,81.1,62.6,30.00,NW,315,4.0,5.0,52,0.00,,,0.00,WeatherTracker,2013-06-29 22:25:00,
2013-06-29 15:30:00,81.5,62.6,30.00,WNW,292,3.0,3.0,52,0.00,,,0.00,WeatherTracker,2013-06-29 22:30:00,
2013-06-29 15:35:00,81.7,62.6,30.00,NW,315,4.0,4.0,51,0.00,,,0.00,WeatherTracker,2013-06-29 22:35:00,
2013-06-29 15:45:00,81.5,62.6,30.00,NW,315,3.0,4.0,52,0.00,,,0.00,WeatherTracker,2013-06-29 22:45:00,
2013-06-29 15:50:00,81.0,62.6,30.00,North,0,3.0,4.0,52,0.00,,,0.00,WeatherTracker,2013-06-29 22:50:00,
2013-06-29 16:00:00,81.9,62.6,30.00,NW,315,2.0,3.0,50,0.00,,,0.00,WeatherTracker,2013-06-29 23:00:00,
2013-06-29 16:10:00,82.8,62.6,30.00,NW,315,2.0,4.0,48,0.00,,,0.00,WeatherTracker,2013-06-29 23:10:00,
2013-06-29 16:20:00,83.1,60.8,30.00,NW,315,4.0,4.0,46,0.00,,,0.00,WeatherTracker,2013-06-29 23:20:00,
2013-06-29 16:25:00,81.7,60.8,30.00,NNW,337,3.0,3.0,47,0.00,,,0.00,WeatherTracker,2013-06-29 23:25:00,
2013-06-29 16:35:00,80.8,59.0,30.00,NW,315,3.0,3.0,46,0.00,,,0.00,WeatherTracker,2013-06-29 23:35:00,
2013-06-29 16:45:00,81.9,59.0,30.00,WNW,292,3.0,3.0,46,0.00,,,0.00,WeatherTracker,2013-06-29 23:45:00,
2013-06-29 16:55:00,82.8,60.8,29.97,NW,315,3.0,4.0,45,0.00,,,0.00,WeatherTracker,2013-06-29 23:55:00,
2013-06-29 17:00:00,83.5,60.8,29.97,NW,315,2.0,2.0,45,0.00,,,0.00,WeatherTracker,2013-06-30 00:00:00,
2013-06-29 17:10:00,83.8,60.8,29.97,NW,315,4.0,4.0,44,0.00,,,0.00,WeatherTracker,2013-06-30 00:10:00,
2013-06-29 17:20:00,82.6,57.2,29.97,NW,315,4.0,6.0,43,0.00,,,0.00,WeatherTracker,2013-06-30 00:20:00,
2013-06-29 17:30:00,82.6,59.0,29.97,NNW,337,1.0,2.0,44,0.00,,,0.00,WeatherTracker,2013-06-30 00:30:00,
2013-06-29 17:35:00,82.0,59.0,29.97,WNW,292,2.0,3.0,44,0.00,,,0.00,WeatherTracker,2013-06-30 00:35:00,
2013-06-29 17:45:00,82.0,59.0,29.97,NW,315,3.0,3.0,44,0.00,,,0.00,WeatherTracker,2013-06-30 00:45:00,
2013-06-29 17:55:00,82.4,59.0,29.97,NNW,337,2.0,4.0,45,0.00,,,0.00,WeatherTracker,2013-06-30 00:55:00,
2013-06-29 18:05:00,81.9,59.0,29.97,NW,315,2.0,2.0,45,0.00,,,0.00,WeatherTracker,2013-06-30 01:05:00,
2013-06-29 18:10:00,81.9,59.0,29.97,NNW,337,2.0,2.0,45,0.00,,,0.00,WeatherTracker,2013-06-30 01:10:00,
2013-06-29 18:20:00,80.4,59.0,29.97,NW,315,2.0,2.0,47,0.00,,,0.00,WeatherTracker,2013-06-30 01:20:00,
2013-06-29 18:25:00,80.2,59.0,29.97,NW,315,2.0,4.0,49,0.00,,,0.00,WeatherTracker,2013-06-30 01:25:00,
2013-06-29 18:30:00,79.5,59.0,29.97,West,270,2.0,3.0,50,0.00,,,0.00,WeatherTracker,2013-06-30 01:30:00,
2013-06-29 18:40:00,79.3,60.8,29.97,WNW,292,4.0,4.0,52,0.00,,,0.00,WeatherTracker,2013-06-30 01:40:00,
2013-06-29 18:45:00,77.5,60.8,29.97,NW,315,3.0,3.0,57,0.00,,,0.00,WeatherTracker,2013-06-30 01:45:00,
2013-06-29 18:55:00,78.4,60.8,29.97,NW,315,1.0,2.0,56,0.00,,,0.00,WeatherTracker,2013-06-30 01:55:00,
2013-06-29 19:05:00,77.4,62.6,29.97,NNW,337,3.0,4.0,58,0.00,,,0.00,WeatherTracker,2013-06-30 02:05:00,
2013-06-29 19:10:00,77.4,62.6,29.97,NW,315,2.0,2.0,59,0.00,,,0.00,WeatherTracker,2013-06-30 02:10:00,
2013-06-29 19:15:00,77.2,60.8,29.97,NNE,22,1.0,0.0,58,0.00,,,0.00,WeatherTracker,2013-06-30 02:15:00,
2013-06-29 19:25:00,76.5,62.6,29.94,WNW,292,2.0,2.0,61,0.00,,,0.00,WeatherTracker,2013-06-30 02:25:00,
2013-06-29 19:30:00,76.1,62.6,29.94,North,0,2.0,2.0,62,0.00,,,0.00,WeatherTracker,2013-06-30 02:30:00,
2013-06-29 19:40:00,73.4,60.8,29.94,NW,315,2.0,2.0,66,0.00,,,0.00,WeatherTracker,2013-06-30 02:40:00,
2013-06-29 19:50:00,72.1,60.8,29.94,NNW,337,0.0,0.0,69,0.00,,,0.00,WeatherTracker,2013-06-30 02:50:00,
2013-06-29 19:55:00,72.0,62.6,29.94,NW,315,1.0,1.0,70,0.00,,,0.00,WeatherTracker,2013-06-30 02:55:00,
2013-06-29 20:05:00,71.1,62.6,29.94,WNW,292,1.0,1.0,73,0.00,,,0.00,WeatherTracker,2013-06-30 03:05:00,
2013-06-29 20:15:00,70.5,60.8,29.94,NW,315,0.0,0.0,73,0.00,,,0.00,WeatherTracker,2013-06-30 03:15:00,
2013-06-29 20:25:00,70.0,60.8,29.94,SW,225,0.0,0.0,74,0.00,,,0.00,WeatherTracker,2013-06-30 03:25:00,
2013-06-29 20:30:00,69.6,62.6,29.94,NW,315,0.0,0.0,77,0.00,,,0.00,WeatherTracker,2013-06-30 03:30:00,
2013-06-29 20:40:00,69.1,62.6,29.94,NW,315,0.0,0.0,77,0.00,,,0.00,WeatherTracker,2013-06-30 03:40:00,
2013-06-29 20:50:00,68.5,60.8,29.94,NW,315,0.0,0.0,78,0.00,,,0.00,WeatherTracker,2013-06-30 03:50:00,
2013-06-29 21:00:00,68.0,60.8,29.94,NW,315,0.0,0.0,77,0.00,,,0.00,WeatherTracker,2013-06-30 04:00:00,
2013-06-29 21:05:00,67.8,60.8,29.97,NW,315,0.0,0.0,78,0.00,,,0.00,WeatherTracker,2013-06-30 04:05:00,
2013-06-29 21:10:00,67.6,60.8,29.97,NW,315,0.0,0.0,78,0.00,,,0.00,WeatherTracker,2013-06-30 04:10:00,
2013-06-29 21:15:00,67.5,60.8,29.97,NW,315,0.0,0.0,79,0.00,,,0.00,WeatherTracker,2013-06-30 04:15:00,
2013-06-29 21:20:00,67.3,60.8,29.97,NW,315,0.0,0.0,79,0.00,,,0.00,WeatherTracker,2013-06-30 04:20:00,
2013-06-29 21:25:00,67.1,60.8,29.97,NW,315,0.0,0.0,80,0.00,,,0.00,WeatherTracker,2013-06-30 04:25:00,
2013-06-29 21:30:00,66.9,60.8,29.97,NW,315,0.0,0.0,80,0.00,,,0.00,WeatherTracker,2013-06-30 04:30:00,
2013-06-29 21:35:00,66.7,60.8,29.97,NW,315,0.0,0.0,80,0.00,,,0.00,WeatherTracker,2013-06-30 04:35:00,
2013-06-29 21:40:00,66.6,60.8,29.97,NW,315,0.0,0.0,81,0.00,,,0.00,WeatherTracker,2013-06-30 04:40:00,
2013-06-29 21:45:00,66.4,60.8,29.97,NW,315,0.0,0.0,81,0.00,,,0.00,WeatherTracker,2013-06-30 04:45:00,
2013-06-29 21:50:00,66.2,60.8,29.97,NW,315,0.0,0.0,82,0.00,,,0.00,WeatherTracker,2013-06-30 04:50:00,
2013-06-29 22:00:00,65.8,60.8,29.97,SE,135,0.0,0.0,84,0.00,,,0.00,WeatherTracker,2013-06-30 05:00:00,
2013-06-29 22:10:00,65.7,60.8,29.97,ESE,112,0.0,0.0,85,0.00,,,0.00,WeatherTracker,2013-06-30 05:10:00,
2013-06-29 22:15:00,65.3,60.8,29.97,SE,135,0.0,0.0,85,0.00,,,0.00,WeatherTracker,2013-06-30 05:15:00,
2013-06-29 22:25:00,64.9,60.8,29.97,SE,135,0.0,0.0,86,0.00,,,0.00,WeatherTracker,2013-06-30 05:25:00,
2013-06-29 22:35:00,64.6,60.8,29.97,ESE,112,0.0,0.0,86,0.00,,,0.00,WeatherTracker,2013-06-30 05:35:00,
2013-06-29 22:40:00,64.4,60.8,29.97,SE,135,0.0,0.0,87,0.00,,,0.00,WeatherTracker,2013-06-30 05:40:00,
2013-06-29 22:50:00,64.2,60.8,29.97,ESE,112,0.0,0.0,87,0.00,,,0.00,WeatherTracker,2013-06-30 05:50:00,
2013-06-29 23:00:00,64.2,60.8,29.97,SE,135,0.0,0.0,88,0.00,,,0.00,WeatherTracker,2013-06-30 06:00:00,
2013-06-29 23:05:00,64.2,60.8,29.97,SE,135,1.0,1.0,88,0.00,,,0.00,WeatherTracker,2013-06-30 06:05:00,
2013-06-29 23:10:00,64.2,60.8,29.97,SE,135,0.0,1.0,89,0.00,,,0.00,WeatherTracker,2013-06-30 06:10:00,
2013-06-29 23:20:00,64.0,60.8,29.94,East,90,0.0,0.0,89,0.00,,,0.00,WeatherTracker,2013-06-30 06:20:00,
2013-06-29 23:25:00,64.4,60.8,29.94,ESE,112,2.0,3.0,90,0.00,,,0.00,WeatherTracker,2013-06-30 06:25:00,
2013-06-29 23:35:00,64.0,60.8,29.94,SE,135,1.0,1.0,90,0.00,,,0.00,WeatherTracker,2013-06-30 06:35:00,
2013-06-29 23:45:00,63.9,60.8,29.94,SE,135,1.0,1.0,90,0.00,,,0.00,WeatherTracker,2013-06-30 06:45:00,
2013-06-29 23:50:00,64.0,60.8,29.94,East,90,1.0,0.0,91,0.00,,,0.00,WeatherTracker,2013-06-30 06:50:00,
2013-06-29 23:55:00,64.0,60.8,29.94,South,180,3.0,3.0,91,0.00,,,0.00,WeatherTracker,2013-06-30 06:55:00,